Regional Weather Roundup
Issued by NWS New Orleans/Baton Rouge, LA

Home | Current Version | Previous Version | Text Only | Print | Product List | Glossary On
Versions: 1 2 3 4 5 6 7 8 9 10 11 12 13 14 15 16 17 18 19 20 21 22 23 24 25 26 27 28 29 30 31 32 33 34 35 36 37 38 39 40 41 42 43 44 45 46 47 48 49 50
295
ASUS44 KLIX 201713
RWRLIX
NEW ORLEANS REGIONAL WEATHER ROUNDUP
NATIONAL WEATHER SERVICE NEW ORLEANS LA
1100 AM CST FRI JAN 20 2017

NOTE: "FAIR" INDICATES FEW OR NO CLOUDS BELOW 12,000 FEET WITH NO
      SIGNIFICANT WEATHER AND/OR OBSTRUCTIONS TO VISIBILITY.
      SKY/WX - SKY CONDITION AND SIGNIFICANT WEATHER.
      TMP - AIR TEMPERATURE.     DP    - DEWPOINT TEMPERATURE.
      RH  - RELATIVE HUMIDITY.   PRES  - PRESSURE.
      HI  - HEAT INDEX.          WCI   - WIND CHILL INDEX.

*  THESE STATIONS ARE NOT NWS OR FAA STATIONS AND ARE NOT UNDER
   NWS QUALITY CONTROL.

LAZ038-040-048-061>063-065>067-069-201800-
SOUTHEAST LOUISIANA

CITY           SKY/WX    TMP DP  RH WIND       PRES   REMARKS
N.O. AUDUBON   NOT AVBL
N.O. INTL ARPT PTSUNNY   74  68  81 W8        29.86F
N.O. LAKEFRONT PTSUNNY   69  66  90 W8        29.86F
N.O. DOWNTOWN*   N/A     76  69  79 VRB5      29.86F
RESERVE*       PTSUNNY   75  70  84 W9        29.86F
SLIDELL        CLOUDY    74  68  81 SW7       29.86S
BATON ROUGE    PTSUNNY   71  65  81 SW9       29.86S
BOOTHVILLE     CLOUDY    71  70  96 S13       29.88S
BELLE CHASSE   PTSUNNY   75  69  81 SW10      29.85F
BOGALUSA*      CLOUDY    69  66  91 W6        29.88F
GALLIANO*      CLOUDY    76  69  77 SW13      29.86F
NEW ROADS*     PTSUNNY   68  63  84 SW8       29.87S
GONZALES*      CLOUDY    71  67  86 SW7       29.86F
HAMMOND*       CLOUDY    73  70  88 SW7       29.86F
HOUMA*         PTSUNNY   75  70  83 W9        29.86F
PORT FOURCHON* CLOUDY    72  70  94 SW8       29.87F FOG

$$

MSZ070-080>082-201800-
SOUTHERN MISSISSIPPI

CITY           SKY/WX    TMP DP  RH WIND       PRES   REMARKS
MCCOMB         MOSUNNY   68  60  75 SW8       29.86S
GULFPORT       PTSUNNY   72  68  87 VRB5      29.86F
BILOXI         CLOUDY    70  64  83 SW8       29.87S
PASCAGOULA     CLOUDY    71  66  84 SW6       29.87F
STENNIS ARPT*  PTSUNNY   73  64  73 S6        29.86F

$$

COASTAL OBSERVATIONS
LAKE AND NEARSHORE STATIONS

STATION/POSITION TIME  TEMP    WIND        PRES    WAVE
                       AIR SEA DIR/SP/G            HT/PER
                 (UTC) (F)     (DEG/KT/KT) (MB)    (FT/S)
PASCAGOULA       1648   68     210/  6/  8 1011.3
WAVELAND YACHT   1648   69 65  180/  8/ 11 1011.5
GRAND ISLE       1648   69 67  200/  7/ 13 1011.8
SOUTHWEST PASS   1642          190/  8/  9   N/A
NEW CANAL        1642   74 59  240/  5/  8 1010.3
SHELL BEACH      1642   73 67  220/ 10/ 12 1011.4

OFFSHORE STATIONS

STATION/POSITION TIME  TEMP    WIND        PRES    WAVE
                       AIR SEA DIR/SP/G            HT/PER
                 (UTC) (F)     (DEG/KT/KT) (MB)    (FT/S)

$$





USA.gov is the U.S. government's official web portal to all federal, state and local government web resources and services.